Location: Cabeza de los Veneras
(40.2000°N, 5.2000°W)
Time: 13:23:22
(UTC+00:00)

USA 234 - Pass Details

Date: 18 April 2024
Orbit: 1099 x 1109 km, 123.0° (Epoch: 26 May)

Event Time Altitude Azimuth Distance (km) Brightness Sun altitude
Exits shadow 21:46:03 36° 202° (SSW) 1,685 4.0 -27.4°
Maximum altitude 21:47:32 40° 232° (SW) 1,567 4.0 -27.6°
Drops below altitude 10° 21:53:37 10° 300° (WNW) 2,961 6.4 -28.4°
Sets 21:56:17 0° 308° (NW) 3,921 7.3 -28.7°
